This demonstration page uses our WeatherBlox Daily Observations layout. Learn more.

Left ArrowRight Arrow

36.19886, -115.1175

Hourly Observations for August 8, 2015

Temp ( °F °C ) Dew Point ( °F °C ) Humidity (%) Winds ( mph kmh ) Pressure ( in mb ) Visibility ( mi km ) Precip ( " mm )
12:53 am 00:53 Clear 83 28.3 33 0.6 17 17 SE 6 9 29.77 1008 10 16 0.00 0.00
1:53 am 01:53 Clear 78 25.6 56 13.3 47 47 ENE 6 9 29.79 1009 10 16 0.00 0.00
2:53 am 02:53 Clear 79 26.1 57 13.9 47 47 ENE 10 17 29.79 1009 10 16 0.00 0.00
3:53 am 03:53 Clear 79 26.1 31 -0.6 17 17 VRB 5 7 29.81 1010 10 16 0.00 0.00
4:53 am 04:53 Clear 76 24.4 38 3.3 25 25 N 9 15 29.82 1010 10 16 0.00 0.00
5:53 am 05:53 Clear 77 25 41 5 28 28 N 5 7 29.84 1010 10 16 0.00 0.00
6:53 am 06:53 Sunny 77 25 42 5.6 29 29 N 7 11 29.85 1011 10 16 0.00 0.00
7:53 am 07:53 Sunny 79 26.1 40 4.4 25 25 Calm 29.87 1012 10 16 0.00 0.00
8:53 am 08:53 Sunny 84 28.9 45 7.2 25 25 Calm 29.88 1012 10 16 0.00 0.00
9:53 am 09:53 Sunny 85 29.4 53 11.7 33 33 ESE 5 7 29.88 1012 10 16 0.00 0.00
10:53 am 10:53 Sunny 88 31.1 47 8.3 24 24 SSE 9 15 29.88 1012 10 16 0.00 0.00
11:53 am 11:53 Sunny 90 32.2 42 5.6 19 19 E 10 17 29.87 1012 10 16 0.00 0.00
12:53 pm 12:53 Sunny 92 33.3 37 2.8 14 14 VRB 3 6 29.85 1011 10 16 0.00 0.00
1:53 pm 13:53 Sunny 94 34.4 34 1.1 12 12 S 6 9 29.83 1010 10 16 0.00 0.00
2:53 pm 14:53 Sunny 96 35.6 34 1.1 11 11 SE 7 11 29.81 1009 10 16 0.00 0.00
3:53 pm 15:53 Sunny 99 37.2 33 0.6 10 10 ESE 12 19 29.78 1008 10 16 0.00 0.00
4:53 pm 16:53 Sunny 98 36.7 28 -2.2 8 8 VRB 5 7 29.77 1008 10 16 0.00 0.00
5:53 pm 17:53 Sunny 99 37.2 27 -2.8 8 8 WSW 9 15 29.76 1008 10 16 0.00 0.00
6:53 pm 18:53 Sunny 97 36.1 31 -0.6 10 10 VRB 3 6 29.76 1008 10 16 0.00 0.00
7:53 pm 19:53 Clear 95 35 25 -3.9 8 8 WSW 7 11 29.78 1008 10 16 0.00 0.00
8:53 pm 20:53 Clear 93 33.9 24 -4.4 8 8 W 8 13 29.79 1009 10 16 0.00 0.00
9:53 pm 21:53 Clear 90 32.2 22 -5.6 8 8 WSW 5 7 29.81 1010 10 16 0.00 0.00
10:53 pm 22:53 Clear 88 31.1 23 -5 9 9 WSW 6 9 29.83 1010 10 16 0.00 0.00
11:53 pm 23:53 Clear 85 29.4 26 -3.3 12 12 ENE 3 6 29.85 1011 10 16 0.00 0.00

Powered by AerisWeather